Погода в Ульяновке

Россия / Калининградская область     54°35′57″N   20°12′31″E
темп.,
°C
ветер,
м/с
пор.,
м/с
влажн.,
%
обл.,
%
осадки,
мм/ч
давл.,
гПа
погр.,
м
9 декабря, чт
чт923:00−8в6147788 0.0 1017329
02:00−8в61379100 0.0 1016316
05:00−8вюв6147711 0.0 1015356
08:00−8вюв61578100 0.0 1014380
11:00−5вюв6159060 0.0 1014405
14:00−3вюв61289100 0.0 1013428
17:00−4вюв6139331 0.0 1012347
20:00−2вюв51292100 0.0 1012406
10 декабря, пт
пт1023:00−1вюв61492100 0.0 1011439
02:00−1вюв61493100 0.0 1009547
05:000вюв61596100 0.3 1007570
08:00+1вюв71497100 0.6 1005610
11:00+1юв61597100 1.2 1004667
14:00+2юв61297100 1.4 1003612
17:00+1ююв51196100 0.0 1004555
20:00+1ююв4896100 0.1 1005381
11 декабря, сб
сб1123:00+1ююв2493100 0.0 1007134
02:00−1ю2295100 0.0 100852
05:00−1ссз019595 0.0 100938
08:00−1ссз1195100 0.0 101043
11:00+1с2489100 0.0 1011136
14:00+2сз3691100 0.1 1012202
17:00+2сз4790100 0.1 1012241
20:00+3зсз61089100 0.5 1013456
12 декабря, вс
вс1223:00+3зсз61087100 0.7 1015491
02:00+3з5988100 1.1 1017406
05:00+1юз5990100 0.1 1019331
08:00−1юз4891100 0.2 1021199
11:00+1юз489116 0.0 1023276
14:00+1юз369231 0.0 1024270
17:000юз349473 0.0 1025124
20:00+1юз228854 0.0 1026132
13 декабря, пн
пн1323:000юз228848 0.0 1026131
02:00+1юз228897 0.0 102643
05:00+2сз1285100 0.0 102683
08:00+2с2379100 0.0 1026138
11:00+3ссв3472100 0.0 1027203
14:00+3ссв357396 0.0 1027242
17:00+2ссв3574100 0.0 1027205
20:00+2св237675 0.0 102758